Starlink 31909

operational
NORAD ID: 59663 Int'l Des: 2024-084 Owner: SPXS Country: US Constellation: starlink
LEOCIRCULAR

About Starlink 31909

Description loading...

Live Position

Loading 3D Globe...

Upcoming Passes

Altitude History

Altitude vs Time

uPlot chart will show altitude changes over time

Two-Line Element Set

1 59663U 24084K 25352.12517037 -.00000348 00000-0 -31417-5 0 9998
2 59663 42.9996 142.0654 0001213 273.6719 86.3994 15.27578671 91901
Epoch: Dec 18, 2025 • Age: 10 hours

Current Status

Altitude 483.5 km
Velocity 7.63 km/s
Sub-Earth Point 26.08°N, 105°W
Launch Date May 6, 2024
Age 1.6 years
Type internet

Technical Details

Classification Payload
Mass 730.00 kg
Dry Mass 700.00 kg
Total Mass 730.00 kg
Length 0.30 m
Diameter 4.10 m
Span 29.00 m
Shape Box + pan
Manufacturer SPXS
Bus Type Starlink V2M
Phase Status In Orbit
Owner/State SPXS/US

Large Constellations

Loading constellations...